Beaufort, NC

12:16 PM EDT on March 25, 2017 (GMT -0400)
Smith

Weather History for KMRH - February, 2012

Change the Weather History Date:

Sunday, February 5, 2012

  Actual Average Record
Temperature  
Mean Temperature 51 °F -  
Max Temperature 60 °F 55 °F 69 °F (1991)
Min Temperature 42 °F 34 °F 17 °F (1980)
Degree Days  
Heating Degree Days 14    
Growing Degree Days 1 (Base 50)    
Moisture  
Dew Point 47 °F    
Average Humidity 92    
Maximum Humidity 100    
Minimum Humidity 81    
Precipitation  
Precipitation 0.21 in - - ()
Sea Level Pressure  
Sea Level Pressure 30.07 in    
Wind  
Wind Speed 9 mph (NNE)    
Max Wind Speed 14 mph    
Max Gust Speed 21 mph    
Visibility 8 miles    
Events Rain    
Averages and records for this station are not official NWS values.
T = Trace of Precipitation, MM = Missing Value Source: NWS Daily Summary

Daily Weather History Graph

Daily Weather History Graph

Search for Another Location

Airport or City:

Trip Planner

Search our weather history database for the weather conditions in past years. The results will help you decide how hot, cold, wet, or windy it might be!

Date:

Astronomy

Feb. 05, 2012 Rise Set
Actual Time 7:02 AM EST 5:39 PM EST
Civil Twilight 6:35 AM EST 6:05 PM EST
Nautical Twilight 6:05 AM EST 6:35 PM EST
Astronomical Twilight 5:36 AM EST 7:05 PM EST
Moon 3:38 PM EST (2/5) 5:08 AM EST (2/5)
Length of Visible Light 11h 29m
Length of Day
10h 37m
Waxing Gibbous, 94% of the Moon is Illuminated
Feb 5
Waxing Gibbous
Feb 7
Full
Feb 14
Last Quarter
Feb 21
New
Feb 29
First Quarter

Hourly Weather History & Observations

Time (EST) Temp. Windchill Dew Point Humidity Pressure Visibility Wind Dir Wind Speed Gust Speed Precip Events Conditions
12:56 AM 59.0 °F - 57.0 °F 93% 30.04 in 9.0 mi WSW 9.2 mph - 0.00 in   Overcast
1:56 AM 60.1 °F - 55.9 °F 86% 30.03 in 10.0 mi WSW 12.7 mph - N/A   Mostly Cloudy
2:56 AM 57.9 °F - 55.0 °F 90% 30.02 in 10.0 mi West 6.9 mph - N/A   Overcast
3:56 AM 57.0 °F - 55.0 °F 93% 30.01 in 10.0 mi West 3.5 mph - N/A   Overcast
4:56 AM 55.9 °F - 53.1 °F 90% 30.00 in 8.0 mi NE 6.9 mph - N/A   Overcast
5:56 AM 54.0 °F - 52.0 °F 93% 29.99 in 10.0 mi Calm Calm - 0.00 in Rain Light Rain
6:56 AM 53.1 °F - 52.0 °F 96% 29.98 in 10.0 mi NE 4.6 mph - 0.00 in   Overcast
7:32 AM 53.6 °F - 51.8 °F 94% 29.98 in 10.0 mi ENE 5.8 mph - N/A   Overcast
7:56 AM 53.1 °F - 52.0 °F 96% 29.98 in 5.0 mi ENE 4.6 mph - 0.01 in Rain Light Rain
8:48 AM 53.6 °F - 51.8 °F 94% 30.00 in 2.5 mi North 12.7 mph - 0.05 in Rain Heavy Rain
8:51 AM 51.8 °F - 51.8 °F 100% 30.00 in 1.8 mi North 9.2 mph - 0.08 in Rain Heavy Rain
8:56 AM 52.0 °F - 52.0 °F 100% 30.00 in 1.5 mi North 9.2 mph - 0.12 in Rain Heavy Rain
9:08 AM 51.8 °F - 51.8 °F 100% 30.00 in 2.5 mi NNE 6.9 mph - 0.04 in Rain Rain
9:12 AM 51.8 °F - 51.8 °F 100% 30.00 in 3.0 mi NNE 5.8 mph - 0.05 in Rain Rain
9:56 AM 52.0 °F - 52.0 °F 100% 30.00 in 6.0 mi NE 4.6 mph - 0.08 in Rain Light Rain
10:07 AM 51.8 °F - 51.8 °F 100% 30.01 in 9.0 mi NNE 8.1 mph - 0.01 in Rain Light Rain
10:21 AM 51.8 °F - 51.8 °F 100% 30.02 in 5.0 mi NNE 6.9 mph - 0.01 in Rain Light Rain
10:56 AM 51.1 °F - 51.1 °F 100% 30.02 in 10.0 mi NNE 11.5 mph - 0.02 in   Overcast
11:56 AM 51.1 °F - 50.0 °F 96% 30.01 in 10.0 mi North 9.2 mph - N/A   Overcast
12:23 PM 50.0 °F - 48.2 °F 94% 30.02 in 10.0 mi North 13.8 mph - N/A   Overcast
12:56 PM 50.0 °F - 48.9 °F 96% 30.02 in 10.0 mi North 13.8 mph - N/A   Overcast
1:56 PM 48.9 °F - 48.0 °F 97% 30.02 in 10.0 mi NNE 9.2 mph - N/A   Overcast
2:56 PM 48.0 °F - 46.9 °F 96% 30.03 in 10.0 mi NNE 11.5 mph 20.7 mph N/A   Overcast
3:56 PM 48.0 °F - 46.0 °F 93% 30.06 in 10.0 mi NNE 10.4 mph - N/A   Overcast
4:12 PM 46.4 °F 40.7 °F 44.6 °F 93% 30.06 in 9.0 mi North 12.7 mph 19.6 mph N/A   Overcast
4:20 PM 46.4 °F 40.4 °F 44.6 °F 93% 30.07 in 8.0 mi North 13.8 mph 19.6 mph N/A   Overcast
4:56 PM 46.9 °F - 44.1 °F 90% 30.09 in 10.0 mi NNE 12.7 mph - N/A   Overcast
5:56 PM 46.0 °F 40.2 °F 43.0 °F 89% 30.12 in 9.0 mi North 12.7 mph - N/A   Overcast
6:03 PM 46.4 °F 41.1 °F 42.8 °F 87% 30.12 in 9.0 mi North 11.5 mph - N/A   Overcast
6:56 PM 46.0 °F 40.6 °F 42.1 °F 86% 30.15 in 8.0 mi NNE 11.5 mph - N/A   Overcast
7:47 PM 44.6 °F 39.2 °F 41.0 °F 87% 30.18 in 9.0 mi North 10.4 mph - N/A   Overcast
7:56 PM 45.0 °F 39.3 °F 41.0 °F 86% 30.19 in 9.0 mi North 11.5 mph - N/A   Overcast
8:56 PM 45.0 °F 39.3 °F 41.0 °F 86% 30.21 in 10.0 mi NNE 11.5 mph - N/A   Overcast
9:56 PM 45.0 °F 40.6 °F 41.0 °F 86% 30.21 in 10.0 mi NNE 8.1 mph - N/A   Overcast
10:15 PM 44.6 °F 38.4 °F 41.0 °F 87% 30.21 in 10.0 mi NNE 12.7 mph - N/A   Overcast
10:32 PM 44.6 °F 38.8 °F 39.2 °F 81% 30.20 in 10.0 mi NNE 11.5 mph - N/A   Overcast
10:56 PM 44.1 °F 37.7 °F 39.0 °F 82% 30.21 in 10.0 mi NNE 12.7 mph - N/A   Overcast
11:33 PM 42.8 °F 37.5 °F 37.4 °F 81% 30.20 in 10.0 mi North 9.2 mph - N/A   Scattered Clouds
11:56 PM 42.1 °F 37.1 °F 37.9 °F 85% 30.22 in 10.0 mi North 8.1 mph - N/A   Scattered Clouds